This is the latest recevied weather packets stored in our database for station/object SQ9NFI-4. If no packets are shown the sender has not sent any weather packets the latest 10 day(s).
| Time | Temp. | Humidity | Pressure | Rain* | Wind** | Luminosity | Snow |
|---|---|---|---|---|---|---|---|
| 1777622416 | 15.56° C | 44% | 1026.8 hPa | 0 mm | - | 363 W/m² | - |
| 1777622116 | 16.11° C | 45% | 1026.8 hPa | 0 mm | - | 331 W/m² | - |
| 1777621816 | 15.56° C | 49% | 1026.8 hPa | 0 mm | - | 361 W/m² | - |
| 1777621516 | 15.56° C | 46% | 1026.8 hPa | 0 mm | - | 327 W/m² | - |
| 1777621216 | 15° C | 47% | 1026.8 hPa | 0 mm | - | 330 W/m² | - |
| 1777620916 | 15° C | 47% | 1026.8 hPa | 0 mm | - | 289 W/m² | - |
| 1777620616 | 14.44° C | 49% | 1026.8 hPa | 0 mm | - | 268 W/m² | - |
| 1777620316 | 14.44° C | 48% | 1026.8 hPa | 0 mm | - | 313 W/m² | - |
| 1777620016 | 14.44° C | 49% | 1026.8 hPa | 0 mm | - | 256 W/m² | - |
| 1777619716 | 15° C | 51% | 1026.8 hPa | 0 mm | - | 269 W/m² | - |
| 1777619416 | 14.44° C | 49% | 1026.8 hPa | 0 mm | - | 223 W/m² | - |
| 1777619116 | 14.44° C | 50% | 1026.8 hPa | 0 mm | - | 268 W/m² | - |
| 1777618816 | 13.89° C | 49% | 1026.8 hPa | 0 mm | - | 221 W/m² | - |
| 1777618516 | 13.89° C | 50% | 1026.8 hPa | 0 mm | - | 215 W/m² | - |
| 1777618216 | 13.89° C | 50% | 1026.8 hPa | 0 mm | - | 282 W/m² | - |
| 1777617916 | 13.33° C | 49% | 1026.8 hPa | 0 mm | - | 223 W/m² | - |
| 1777617616 | 13.33° C | 52% | 1026.8 hPa | 0 mm | - | 186 W/m² | - |
| 1777617316 | 13.33° C | 50% | 1026.8 hPa | 0 mm | - | 200 W/m² | - |
| 1777617016 | 13.33° C | 51% | 1026.8 hPa | 0 mm | - | 232 W/m² | - |
| 1777616716 | 13.33° C | 53% | 1026.8 hPa | 0 mm | - | 226 W/m² | - |
| 1777616416 | 12.22° C | 52% | 1026.8 hPa | 0 mm | - | 187 W/m² | - |
| 1777616116 | 12.22° C | 53% | 1026.8 hPa | 0 mm | - | 264 W/m² | - |
| 1777615516 | 11.67° C | 55% | 1026.8 hPa | 0 mm | - | 172 W/m² | - |
| 1777615216 | 11.67° C | 54% | 1026.8 hPa | 0 mm | - | 168 W/m² | - |
| 1777614916 | 11.67° C | 53% | 1026.8 hPa | 0 mm | - | 128 W/m² | - |
* Rain latest hour (hover to see other rain measurements)
** Current wind speed in m/s (hover to see current wind gust speed)